User: anonymous   Login
Location: Martley
(52.2333°N, 2.3667°W)
Time: 08:10:53
(UTC+00:00)
Language:

Cosmos 2227 Rocket - Orbit

View from above orbital plane
View from above orbital plane
View from above satellite
View from above satellite

Ground track
Ground track

The orbit data is extracted from the following two-line orbital elements,

1 22285U 92093B   20055.70129852 -.00000269  00000-0 -11453-3 0  9994
2 22285  71.0222 311.1574 0002084  48.4382 311.6919 14.15039190401525
Epoch (UTC): 24 February 2020 16:49:52
Eccentricity: 0.0002084
inclination: 71.0222°
perigee height: 840 km
apogee height: 843 km
right ascension of ascending node: 311.1574°
argument of perigee: 48.4382°
revolutions per day: 14.15039190
mean anomaly at epoch: 311.6919°
orbit number at epoch: 40152

The dashed part of the orbit path shows where the satellite is in the earth's shadow,  

DLR